[[{"header":{"parameterUnit":"m.s-1","parameterCategory":2,"la1":30.2991,"la2":30.254,"lo1":-89.0895,"lo2":-89.0444,"dy":0.0017,"dx":0.0017,"nx":28,"ny":28,"refTime":"2025-06-01T09:00:00:Z","depth":"0","parameterNumber":2,"parameterNumberName":"U-component_of_CURRENTS"},"data":[0,0,0,0,0,0,0,0,0,0,0,0,0,0,0,0,0,0,0,0,0,0,0,0,0,0,0,0,0,0,0,0,0,0,0,0,0,0,0,0,0,0,0,0,0,0,0,0,0,0,0,0,0,0,0,0,0,0,-0.3402,-0.3402,0,-0.3407,-0.3406,-0.3406,-0.331,-0.3308,-0.3306,-0.3304,-0.3182,-0.318,-0.3179,0,0,0,0,0,0,0,0,0,0,0,0,0,-0.3122,-0.3128,-0.3402,-0.3402,-0.3403,-0.3407,-0.3406,-0.3406,-0.331,-0.3308,-0.3305,-0.3303,-0.3182,-0.318,-0.3179,0,0,0,0,0,0,0,0,0,0,0,0,0,-0.3191,-0.313,-0.3402,-0.336,-0.3357,-0.3407,-0.3406,-0.3406,-0.3311,-0.3308,-0.3305,-0.3302,-0.3183,-0.3181,-0.3179,-0.3226,0,0,-0.3172,-0.3171,0,0,0,0,0,0,0,0,-0.3188,-0.3201,-0.3366,-0.3363,-0.336,-0.336,-0.3263,-0.3342,-0.3311,-0.3322,-0.3304,-0.33,-0.3236,-0.3229,-0.323,-0.322,-0.3215,-0.3172,-0.3171,-0.317,-0.3169,0,0,0,0,0,0,0,-0.3183,-0.3199,-0.3397,-0.3367,-0.3364,-0.3278,-0.3285,-0.3277,-0.3288,-0.3321,-0.3315,-0.3327,-0.3232,-0.3232,-0.3226,-0.3213,-0.3172,-0.317,-0.3169,-0.3168,-0.321,-0.3212,0,0,0,0,0,0,-0.321,-0.3197,-0.3397,-0.3398,-0.3272,-0.3287,-0.3295,-0.3358,-0.3291,-0.3281,-0.333,-0.3323,-0.3237,-0.3228,-0.3221,-0.3248,-0.317,-0.3168,-0.3167,-0.3208,-0.3211,-0.3213,0,0,0,0,0,0,-0.3205,-0.323,-0.3397,-0.3298,-0.3314,-0.3297,-0.3367,-0.336,-0.3343,-0.3301,-0.3286,-0.3319,-0.3234,-0.3224,-0.322,-0.3243,-0.3167,-0.3165,-0.3205,-0.3209,-0.3212,-0.3318,0,0,0,0,0,0,-0.3198,-0.323,-0.327,-0.3303,-0.3321,-0.3436,-0.3371,-0.3362,-0.3359,-0.3349,-0.3287,-0.3274,-0.3231,-0.3224,-0.3219,-0.3239,-0.3164,-0.3202,-0.3207,-0.3211,-0.3311,-0.3324,-0.3336,0,0,0,0,0,-0.3189,-0.3255,-0.3273,-0.3296,-0.3385,-0.3439,-0.344,-0.3409,-0.3362,-0.3376,-0.3334,-0.3275,-0.3247,-0.3225,-0.3218,-0.3238,-0.32,-0.3205,-0.321,-0.3306,-0.3322,-0.3335,0,0,0,0,0,0,-0.31,-0.3254,-0.3273,-0.3369,-0.3409,-0.3425,-0.3434,-0.3415,-0.3395,-0.3371,-0.331,-0.3296,-0.3303,-0.3267,-0.3244,-0.3266,-0.3213,-0.3217,-0.3288,-0.3302,-0.3314,-0.3311,-0.3162,0,0,0,0,0,-0.3123,-0.324,-0.3324,-0.3389,-0.3425,-0.343,-0.3441,-0.343,-0.3425,-0.3411,-0.3374,-0.3337,-0.3327,-0.3309,-0.3297,-0.3312,-0.3251,-0.3321,-0.3333,-0.3344,-0.3339,-0.3293,-0.33,-0.3231,-0.3231,-0.323,0,0,-0.309,-0.3198,-0.3248,-0.3382,-0.3408,-0.3464,-0.3427,-0.3459,-0.3478,-0.3404,-0.3405,-0.3383,-0.3344,-0.3361,-0.3359,-0.3326,-0.3331,-0.335,-0.3359,-0.3348,-0.3299,-0.3306,-0.3311,-0.3234,-0.3234,-0.3233,0,0,-0.3087,-0.3201,-0.329,-0.3364,-0.3449,-0.3471,-0.3487,-0.3522,-0.3514,-0.3538,-0.3487,-0.348,-0.3462,-0.3442,-0.3427,-0.3503,-0.3404,-0.3499,-0.3547,-0.3504,-0.3508,-0.3511,-0.3431,-0.3426,-0.3497,-0.3497,-0.3497,0,-0.301,-0.3185,-0.3301,-0.3402,-0.3453,-0.3481,-0.3536,-0.3557,-0.3572,-0.3569,-0.3548,-0.3527,-0.35,-0.3505,-0.3537,-0.3527,-0.3472,-0.3491,-0.3517,-0.3519,-0.352,-0.3437,-0.343,-0.3503,-0.3502,-0.3501,-0.3501,0,-0.3071,-0.3219,-0.3272,-0.3438,-0.3498,-0.3559,-0.3628,-0.3655,-0.3649,-0.365,-0.366,-0.3641,-0.3612,-0.3623,-0.3602,-0.361,-0.3557,-0.3542,-0.3473,-0.3533,-0.3442,-0.3433,-0.3511,-0.3509,-0.3507,-0.3506,0,0,-0.2833,-0.324,-0.3234,-0.3376,-0.3533,-0.3584,-0.3649,-0.3707,-0.3711,-0.3736,-0.3725,-0.375,-0.3719,-0.3704,-0.368,-0.366,-0.3632,-0.3613,-0.3608,-0.3521,-0.3503,-0.3222,-0.3184,-0.3617,-0.3617,-0.3616,-0.3431,0,-0.2809,-0.3066,-0.323,-0.3398,-0.3553,-0.3642,-0.3694,-0.3745,-0.3761,-0.3762,-0.3757,-0.3745,-0.3756,-0.3734,-0.3726,-0.3651,-0.3615,-0.3681,-0.3469,-0.3462,-0.3194,-0.3167,-0.3022,-0.2823,-0.3422,-0.342,-0.3419,0,-0.2754,-0.2994,-0.3207,-0.3507,-0.3549,-0.361,-0.3697,-0.3749,-0.3778,-0.3781,-0.3782,-0.3761,-0.3749,-0.3741,-0.3649,-0.3688,-0.3608,-0.3553,-0.3543,-0.3233,-0.3162,-0.2864,-0.2783,-0.2788,-0.3404,-0.3405,-0.3406,0,-0.261,-0.2917,-0.3118,-0.3226,-0.3555,-0.3599,-0.367,-0.3733,-0.3756,-0.3775,-0.3754,-0.3753,-0.3704,-0.3655,-0.354,-0.3596,-0.3392,-0.3444,-0.3116,-0.3095,-0.29,-0.2859,-0.2781,-0.3365,-0.3366,-0.3366,-0.3367,0,-0.257,-0.2715,-0.3078,-0.324,-0.3368,-0.3554,-0.3605,-0.3675,-0.3707,-0.3707,-0.3742,-0.3712,-0.3681,-0.3565,-0.3504,-0.3228,-0.3349,-0.3089,-0.3016,-0.2928,-0.2895,-0.283,-0.2903,-0.3359,-0.3361,-0.3362,-0.3363,0,-0.246,-0.2692,-0.2984,-0.3324,-0.3376,-0.3463,-0.3588,-0.3599,-0.3649,-0.364,-0.3639,-0.3638,-0.3467,-0.3359,-0.3217,-0.3107,-0.2843,-0.2802,-0.2665,-0.2577,-0.2258,-0.2341,-0.214,-0.2086,-0.2417,-0.2409,-0.2402,0,-0.2461,-0.2631,-0.3023,-0.312,-0.3284,-0.3409,-0.3448,-0.3553,-0.3558,-0.359,-0.3554,-0.3412,-0.3247,-0.2883,-0.2663,-0.2384,-0.2496,-0.211,-0.2186,-0.2167,-0.2213,-0.2314,-0.2298,-0.1992,-0.1982,-0.1974,-0.1968,0,-0.252,-0.2653,-0.2909,-0.311,-0.3203,-0.3302,-0.3371,-0.3372,-0.3453,-0.3393,-0.3272,-0.3138,-0.2779,-0.2367,-0.1999,-0.1897,-0.2053,-0.1927,-0.198,-0.1896,-0.1935,-0.1872,-0.2188,-0.1897,-0.1904,-0.1909,-0.1913,-0.1916,-0.2508,-0.2654,-0.2934,-0.3069,-0.3141,-0.3162,-0.3131,-0.3142,-0.3083,-0.287,-0.2908,-0.2459,-0.2069,-0.1499,-0.147,-0.1262,-0.1455,-0.1241,-0.135,-0.1457,-0.1378,-0.1474,-0.1049,-0.1051,-0.1053,-0.1055,-0.1056,0,-0.2518,-0.2672,-0.2832,-0.2994,-0.2961,-0.3037,-0.3022,-0.2876,-0.2677,-0.2398,-0.2117,-0.1401,-0.1083,-0.0901,-0.0722,-0.0726,-0.0862,-0.0777,-0.1,-0.1018,-0.114,-0.1092,-0.0569,-0.0569,-0.0569,-0.0569,-0.0569,-0.0569,-0.2535,-0.2709,-0.2796,-0.2763,-0.2784,-0.2624,-0.2552,-0.2297,-0.2014,-0.1361,-0.0807,-0.0492,-0.0342,-0.0438,-0.055,-0.0592,-0.0729,-0.0645,-0.0765,-0.0986,-0.1044,-0.11,-0.1073,-0.0554,-0.0554,-0.061,-0.0611,-0.0612]},{"header":{"parameterUnit":"m.s-1","parameterCategory":2,"la1":30.2991,"la2":30.254,"lo1":-89.0895,"lo2":-89.0444,"dy":0.0017,"dx":0.0017,"nx":28,"ny":28,"refTime":"2025-06-01T09:00:00:Z","depth":"0","parameterNumber":3,"parameterNumberName":"V-component_of_CURRENTS"},"data":[0,0,0,0,0,0,0,0,0,0,0,0,0,0,0,0,0,0,0,0,0,0,0,0,0,0,0,0,0,0,0,0,0,0,0,0,0,0,0,0,0,0,0,0,0,0,0,0,0,0,0,0,0,0,0,0,0,0,-0.0416,-0.0416,0,-0.0408,-0.0407,-0.0407,-0.0354,-0.0353,-0.0352,-0.0352,-0.024,-0.0238,-0.0235,0,0,0,0,0,0,0,0,0,0,0,0,0,-0.0382,-0.0382,-0.0415,-0.0416,-0.0416,-0.0408,-0.0407,-0.0406,-0.0354,-0.0353,-0.0352,-0.0351,-0.024,-0.0238,-0.0235,0,0,0,0,0,0,0,0,0,0,0,0,0,-0.0383,-0.0382,-0.0415,-0.0393,-0.0391,-0.0408,-0.0407,-0.0406,-0.0354,-0.0353,-0.0352,-0.0351,-0.0241,-0.0238,-0.0235,-0.0239,0,0,-0.0225,-0.0223,0,0,0,0,0,0,0,0,-0.0383,-0.0383,-0.0396,-0.0395,-0.0393,-0.0385,-0.0354,-0.0347,-0.0355,-0.0363,-0.0352,-0.035,-0.0283,-0.0276,-0.0272,-0.0233,-0.0228,-0.0224,-0.0222,-0.0221,-0.022,0,0,0,0,0,0,0,-0.0383,-0.0383,-0.0407,-0.0396,-0.0395,-0.0382,-0.0381,-0.0353,-0.0324,-0.0362,-0.036,-0.0367,-0.028,-0.0275,-0.0268,-0.0227,-0.0224,-0.0221,-0.0219,-0.0218,-0.0135,-0.0135,0,0,0,0,0,0,-0.0396,-0.0384,-0.0408,-0.0407,-0.039,-0.0384,-0.0382,-0.0385,-0.0326,-0.0319,-0.0368,-0.0365,-0.0281,-0.0272,-0.0264,-0.0265,-0.0221,-0.0218,-0.0216,-0.0135,-0.0135,-0.0134,0,0,0,0,0,0,-0.0395,-0.0398,-0.0408,-0.0399,-0.04,-0.0387,-0.039,-0.0385,-0.0381,-0.0333,-0.0322,-0.0369,-0.028,-0.0269,-0.0241,-0.026,-0.0216,-0.0213,-0.0135,-0.0135,-0.0135,-0.0267,0,0,0,0,0,0,-0.0394,-0.0397,-0.0401,-0.04,-0.0402,-0.0427,-0.0391,-0.0386,-0.039,-0.0385,-0.033,-0.0319,-0.0278,-0.0246,-0.0238,-0.0255,-0.0211,-0.0135,-0.0135,-0.0135,-0.0263,-0.0271,-0.0279,0,0,0,0,0,-0.0392,-0.0413,-0.0401,-0.0404,-0.0407,-0.0428,-0.0428,-0.041,-0.0391,-0.0398,-0.0356,-0.032,-0.0236,-0.0244,-0.0234,-0.0251,-0.0136,-0.0135,-0.0135,-0.026,-0.027,-0.0278,0,0,0,0,0,0,-0.0412,-0.041,-0.0396,-0.0417,-0.0424,-0.0421,-0.0433,-0.0419,-0.0394,-0.0387,-0.0329,-0.0315,-0.0294,-0.0249,-0.0259,-0.0219,-0.0176,-0.0173,-0.0274,-0.0283,-0.0291,-0.0344,-0.0208,0,0,0,0,0,-0.0416,-0.0419,-0.0425,-0.0441,-0.045,-0.0441,-0.0446,-0.0438,-0.0422,-0.041,-0.037,-0.032,-0.0285,-0.0267,-0.0225,-0.0216,-0.0186,-0.0211,-0.0219,-0.0227,-0.026,-0.0261,-0.0274,-0.0133,-0.0133,-0.0133,0,0,-0.043,-0.0429,-0.0432,-0.0444,-0.0446,-0.0492,-0.0439,-0.0461,-0.0492,-0.0401,-0.0414,-0.0349,-0.0286,-0.0272,-0.0257,-0.0239,-0.0236,-0.0226,-0.0233,-0.0263,-0.0262,-0.0276,-0.0289,-0.0133,-0.0133,-0.0133,0,0,-0.0485,-0.046,-0.0495,-0.0512,-0.0529,-0.0525,-0.0537,-0.0536,-0.0524,-0.0526,-0.0465,-0.0419,-0.0365,-0.0331,-0.0305,-0.033,-0.0277,-0.0299,-0.0392,-0.0392,-0.0406,-0.0417,-0.035,-0.0355,-0.0306,-0.0307,-0.0307,0,-0.0506,-0.0559,-0.0511,-0.0567,-0.0605,-0.0551,-0.0628,-0.0611,-0.0597,-0.06,-0.0543,-0.0471,-0.0401,-0.0406,-0.04,-0.0354,-0.0326,-0.037,-0.0409,-0.042,-0.043,-0.0358,-0.0362,-0.0313,-0.0312,-0.0311,-0.0311,0,-0.0599,-0.0654,-0.0683,-0.0731,-0.0747,-0.0806,-0.0791,-0.0793,-0.0757,-0.0736,-0.0713,-0.0613,-0.0574,-0.0528,-0.0471,-0.0498,-0.0444,-0.0422,-0.0402,-0.0453,-0.0372,-0.0373,-0.0322,-0.032,-0.0318,-0.0316,0,0,-0.0631,-0.0735,-0.0748,-0.0827,-0.0852,-0.0891,-0.0925,-0.0958,-0.0991,-0.0919,-0.0957,-0.0852,-0.0777,-0.0742,-0.0652,-0.0637,-0.0636,-0.0567,-0.0564,-0.0529,-0.0602,-0.0381,-0.0359,-0.064,-0.0642,-0.0643,-0.0502,0,-0.0737,-0.0908,-0.0902,-0.1058,-0.116,-0.1124,-0.1168,-0.1168,-0.1125,-0.1129,-0.1018,-0.0993,-0.0865,-0.0835,-0.0804,-0.069,-0.0655,-0.0674,-0.0533,-0.0528,-0.0351,-0.036,-0.0242,-0.0093,-0.0503,-0.0503,-0.0503,0,-0.0829,-0.0953,-0.1147,-0.1278,-0.1309,-0.1368,-0.1432,-0.1452,-0.1414,-0.1371,-0.1313,-0.1214,-0.115,-0.1036,-0.0892,-0.0916,-0.0776,-0.0675,-0.0667,-0.0429,-0.0312,-0.0113,-0.0079,0.0033,-0.0504,-0.0504,-0.0504,0,-0.0941,-0.1103,-0.1279,-0.1334,-0.1467,-0.1525,-0.1549,-0.1537,-0.1551,-0.1516,-0.1507,-0.1414,-0.1339,-0.1214,-0.0923,-0.0946,-0.074,-0.0745,-0.041,-0.039,-0.0244,-0.0207,-0.0115,-0.0666,-0.0666,-0.0666,-0.0667,0,-0.1084,-0.1216,-0.1351,-0.1487,-0.1645,-0.165,-0.176,-0.176,-0.1738,-0.1738,-0.163,-0.158,-0.1388,-0.1208,-0.0997,-0.0656,-0.0784,-0.0427,-0.0353,-0.0273,-0.0242,-0.0098,-0.0082,-0.0661,-0.0662,-0.0663,-0.0664,0,-0.121,-0.1295,-0.1521,-0.17,-0.1733,-0.1841,-0.1889,-0.1939,-0.1899,-0.1894,-0.1884,-0.1719,-0.1451,-0.1182,-0.0912,-0.0703,-0.0305,-0.0276,-0.0138,-0.0051,0.0328,0.0333,0.0511,0.0639,0.0041,0.0047,0.0052,0,-0.129,-0.1447,-0.1695,-0.1791,-0.1882,-0.1995,-0.2053,-0.2033,-0.2034,-0.1935,-0.1922,-0.1683,-0.1392,-0.088,-0.0508,-0.0085,-0.0009,0.0247,0.022,0.0375,0.043,0.0409,0.0499,0.0376,0.0383,0.0389,0.0394,0,-0.15,-0.1596,-0.1792,-0.1995,-0.2097,-0.2179,-0.2226,-0.2225,-0.2143,-0.2007,-0.1774,-0.1533,-0.1059,-0.0489,0.0052,0.0278,0.0357,0.0387,0.0466,0.0642,0.0696,0.0849,0.0296,0.0448,0.0443,0.0439,0.0436,0.0434,-0.1626,-0.1789,-0.2024,-0.2183,-0.2276,-0.229,-0.2212,-0.2135,-0.1969,-0.1543,-0.1508,-0.0868,-0.0423,0.0379,0.0538,0.0952,0.0832,0.1072,0.1053,0.1008,0.1161,0.0786,0.1075,0.1073,0.1071,0.107,0.1069,0,-0.1787,-0.1968,-0.2162,-0.2316,-0.2361,-0.2363,-0.2257,-0.1994,-0.1596,-0.1128,-0.0679,0.0175,0.07,0.1032,0.1471,0.1605,0.1554,0.1652,0.1572,0.1624,0.123,0.1277,0.172,0.172,0.172,0.172,0.172,0.172,-0.1881,-0.2152,-0.2251,-0.2349,-0.2361,-0.2154,-0.1981,-0.1499,-0.1026,-0.0023,0.0723,0.1161,0.1498,0.1745,0.1991,0.2009,0.2078,0.2084,0.2111,0.1752,0.1692,0.1634,0.1681,0.2203,0.2203,0.2523,0.2526,0.2528]}],[{"header":{"parameterUnit":"m.s-1","parameterCategory":2,"la1":30.2991,"la2":30.254,"lo1":-89.0895,"lo2":-89.0444,"dy":0.0017,"dx":0.0017,"nx":28,"ny":28,"refTime":"2025-06-01T09:00:00:Z","depth":"2","parameterNumber":2,"parameterNumberName":"U-component_of_CURRENTS"},"data":[0,0,0,0,0,0,0,0,0,0,0,0,0,0,0,0,0,0,0,0,0,0,0,0,0,0,0,0,0,0,0,0,0,0,0,0,0,0,0,0,0,0,0,0,0,0,0,0,0,0,0,0,0,0,0,0,0,0,-0.2229,-0.223,0,-0.2406,-0.2409,-0.2412,-0.2527,-0.2527,-0.2527,-0.2527,-0.2755,-0.2761,-0.2767,0,0,0,0,0,0,0,0,0,0,0,0,0,-0.2158,-0.2158,-0.2229,-0.223,-0.2231,-0.2406,-0.2409,-0.2413,-0.2527,-0.2527,-0.2527,-0.2527,-0.2753,-0.276,-0.2768,0,0,0,0,0,0,0,0,0,0,0,0,0,-0.2257,-0.2158,-0.2228,-0.2301,-0.2309,-0.2405,-0.241,-0.2414,-0.2528,-0.2527,-0.2527,-0.2526,-0.275,-0.2759,-0.2769,-0.2835,0,0,-0.2798,-0.2802,0,0,0,0,0,0,0,0,-0.2251,-0.2261,-0.229,-0.2296,-0.2305,-0.2435,-0.2468,-0.2553,-0.2528,-0.2456,-0.2527,-0.2526,-0.2646,-0.2664,-0.2713,-0.2846,-0.2856,-0.2798,-0.2804,-0.2808,-0.2811,0,0,0,0,0,0,0,-0.2244,-0.2255,-0.231,-0.2291,-0.23,-0.2382,-0.2396,-0.2486,-0.256,-0.2462,-0.2468,-0.2471,-0.2652,-0.2703,-0.2719,-0.2859,-0.2798,-0.2807,-0.2812,-0.2816,-0.2997,-0.2996,0,0,0,0,0,0,-0.2192,-0.2247,-0.2304,-0.2314,-0.2264,-0.2382,-0.2398,-0.2402,-0.2558,-0.2578,-0.2471,-0.2475,-0.2687,-0.2708,-0.2727,-0.2741,-0.2808,-0.2817,-0.2823,-0.2998,-0.2997,-0.2996,0,0,0,0,0,0,-0.219,-0.2195,-0.2297,-0.2276,-0.2294,-0.2382,-0.2387,-0.2406,-0.2455,-0.2562,-0.2586,-0.2499,-0.2688,-0.2714,-0.2833,-0.2754,-0.2821,-0.283,-0.2999,-0.2998,-0.2997,-0.2817,0,0,0,0,0,0,-0.2187,-0.2194,-0.2199,-0.2272,-0.2292,-0.2323,-0.2387,-0.2409,-0.2452,-0.246,-0.2594,-0.2615,-0.2689,-0.2818,-0.2842,-0.2768,-0.2837,-0.3,-0.2998,-0.2997,-0.2824,-0.281,-0.2797,0,0,0,0,0,-0.2184,-0.219,-0.2198,-0.2205,-0.2289,-0.232,-0.2339,-0.241,-0.2453,-0.2459,-0.2586,-0.2611,-0.2821,-0.2828,-0.2856,-0.2781,-0.3001,-0.2999,-0.2997,-0.283,-0.2812,-0.2798,0,0,0,0,0,0,-0.2181,-0.2204,-0.2214,-0.2231,-0.2251,-0.2335,-0.237,-0.2404,-0.2512,-0.2549,-0.265,-0.2681,-0.274,-0.2807,-0.2812,-0.2829,-0.2895,-0.2898,-0.2757,-0.2742,-0.2729,-0.2701,-0.2845,0,0,0,0,0,-0.217,-0.2166,-0.22,-0.2207,-0.2228,-0.2297,-0.2329,-0.2367,-0.2458,-0.2505,-0.2594,-0.2691,-0.2754,-0.2789,-0.2874,-0.2914,-0.2977,-0.2871,-0.2857,-0.2845,-0.2842,-0.2903,-0.2894,-0.299,-0.299,-0.299,0,0,-0.2172,-0.2179,-0.2181,-0.2202,-0.225,-0.2253,-0.232,-0.2364,-0.2355,-0.2516,-0.2577,-0.267,-0.2764,-0.2801,-0.2825,-0.2845,-0.2847,-0.2843,-0.2831,-0.2835,-0.29,-0.289,-0.2882,-0.2988,-0.2989,-0.2989,0,0,-0.2153,-0.2181,-0.217,-0.2182,-0.2216,-0.2244,-0.2241,-0.232,-0.235,-0.2414,-0.2512,-0.2559,-0.2685,-0.2705,-0.2735,-0.2701,-0.2788,-0.2722,-0.2617,-0.2674,-0.2667,-0.2661,-0.2701,-0.27,-0.2696,-0.2696,-0.2695,0,-0.2155,-0.214,-0.2172,-0.2164,-0.2175,-0.2222,-0.2219,-0.2241,-0.2339,-0.2378,-0.2405,-0.2572,-0.261,-0.264,-0.2602,-0.2656,-0.274,-0.2661,-0.2654,-0.265,-0.2647,-0.2691,-0.2692,-0.2687,-0.2688,-0.2689,-0.269,0,-0.2121,-0.2116,-0.2121,-0.2104,-0.2115,-0.2127,-0.2142,-0.2172,-0.2213,-0.2246,-0.2313,-0.2393,-0.2486,-0.246,-0.2514,-0.2501,-0.2583,-0.264,-0.2685,-0.2626,-0.2676,-0.2681,-0.2674,-0.2677,-0.268,-0.2682,0,0,-0.2094,-0.2097,-0.2092,-0.2088,-0.2095,-0.2103,-0.2089,-0.2105,-0.2143,-0.2171,-0.2229,-0.2226,-0.23,-0.2338,-0.2396,-0.24,-0.2385,-0.25,-0.2508,-0.2522,-0.2542,-0.2273,-0.2254,-0.2482,-0.2482,-0.2483,-0.2575,0,-0.2056,-0.2027,-0.2035,-0.2005,-0.2003,-0.2043,-0.2035,-0.2057,-0.2104,-0.2175,-0.2192,-0.2276,-0.2239,-0.2313,-0.2291,-0.2448,-0.2399,-0.2356,-0.2615,-0.2621,-0.2374,-0.2248,-0.2081,-0.2121,-0.258,-0.2581,-0.2582,0,-0.2003,-0.1991,-0.1963,-0.1983,-0.1995,-0.1976,-0.2029,-0.2034,-0.2109,-0.2177,-0.2228,-0.2307,-0.2328,-0.2307,-0.2405,-0.2417,-0.2422,-0.2476,-0.2483,-0.2299,-0.2358,-0.2264,-0.2114,-0.2591,-0.259,-0.2589,-0.2589,0,-0.1945,-0.194,-0.1916,-0.1916,-0.1938,-0.1949,-0.1968,-0.2035,-0.2098,-0.2198,-0.2312,-0.2349,-0.2433,-0.2465,-0.245,-0.2508,-0.2545,-0.2656,-0.2384,-0.237,-0.23,-0.2273,-0.2622,-0.2622,-0.2622,-0.2622,-0.2622,0,-0.1884,-0.1868,-0.1891,-0.1872,-0.1878,-0.1919,-0.1974,-0.2015,-0.2147,-0.2232,-0.2316,-0.2366,-0.2485,-0.25,-0.249,-0.2398,-0.2556,-0.2322,-0.2348,-0.2224,-0.2191,-0.2677,-0.2682,-0.2625,-0.2625,-0.2624,-0.2623,0,-0.1806,-0.1822,-0.1796,-0.1823,-0.1838,-0.1839,-0.1964,-0.2052,-0.2174,-0.2306,-0.2355,-0.2449,-0.2444,-0.2455,-0.25,-0.2432,-0.2387,-0.2267,-0.2068,-0.2061,-0.22,-0.2195,-0.2121,-0.2112,-0.2104,-0.2097,-0.2092,0,-0.1763,-0.1734,-0.174,-0.1758,-0.1765,-0.1813,-0.1893,-0.2025,-0.2135,-0.2292,-0.2357,-0.2376,-0.2281,-0.2208,-0.2082,-0.1982,-0.2089,-0.1775,-0.1773,-0.21,-0.2137,-0.2145,-0.2151,-0.1657,-0.1648,-0.1641,-0.1635,0,-0.1673,-0.167,-0.1658,-0.1689,-0.1746,-0.1844,-0.195,-0.2003,-0.2176,-0.2233,-0.2203,-0.2114,-0.2001,-0.1747,-0.1579,-0.1507,-0.1801,-0.1619,-0.2057,-0.1737,-0.1648,-0.1689,-0.1714,-0.1572,-0.1578,-0.1583,-0.1586,-0.1589,-0.1611,-0.1591,-0.1598,-0.1616,-0.1695,-0.1804,-0.1809,-0.1923,-0.1948,-0.1962,-0.1963,-0.1766,-0.1694,-0.1294,-0.1165,-0.1098,-0.1254,-0.128,-0.131,-0.1347,-0.1203,-0.1096,-0.0894,-0.0896,-0.0898,-0.09,-0.0901,0,-0.1542,-0.154,-0.1555,-0.1566,-0.1592,-0.1708,-0.1812,-0.1772,-0.1647,-0.1681,-0.1568,-0.1251,-0.103,-0.0956,-0.0732,-0.0678,-0.0782,-0.0674,-0.0851,-0.0908,-0.0961,-0.0808,-0.039,-0.0389,-0.0388,-0.0387,0,0,-0.1519,-0.1487,-0.1484,-0.1444,-0.1464,-0.142,-0.1419,-0.1348,-0.1305,-0.1117,-0.0986,-0.1065,-0.0942,-0.0709,-0.062,-0.0476,-0.0719,-0.0443,-0.0843,-0.1112,-0.1165,-0.1275,-0.1094,0,0,0,0,0]},{"header":{"parameterUnit":"m.s-1","parameterCategory":2,"la1":30.2991,"la2":30.254,"lo1":-89.0895,"lo2":-89.0444,"dy":0.0017,"dx":0.0017,"nx":28,"ny":28,"refTime":"2025-06-01T09:00:00:Z","depth":"2","parameterNumber":3,"parameterNumberName":"V-component_of_CURRENTS"},"data":[0,0,0,0,0,0,0,0,0,0,0,0,0,0,0,0,0,0,0,0,0,0,0,0,0,0,0,0,0,0,0,0,0,0,0,0,0,0,0,0,0,0,0,0,0,0,0,0,0,0,0,0,0,0,0,0,0,0,-0.0316,-0.0315,0,-0.0136,-0.0133,-0.013,-0.0003,-0.0002,-0.0002,-0.0002,0.0378,0.0388,0.0398,0,0,0,0,0,0,0,0,0,0,0,0,0,-0.038,-0.038,-0.0316,-0.0315,-0.0313,-0.0136,-0.0133,-0.013,-0.0003,-0.0002,-0.0002,-0.0002,0.0375,0.0387,0.0399,0,0,0,0,0,0,0,0,0,0,0,0,0,-0.0284,-0.038,-0.0316,-0.0235,-0.0226,-0.0137,-0.0133,-0.0129,-0.0003,-0.0002,-0.0002,-0.0002,0.0371,0.0386,0.04,0.0485,0,0,0.0446,0.0452,0,0,0,0,0,0,0,0,-0.0289,-0.028,-0.0248,-0.024,-0.0231,-0.0099,-0.0016,0.0083,-0.0003,-0.0079,-0.0002,-0.0002,0.0232,0.0258,0.03,0.0503,0.0519,0.0447,0.0456,0.0462,0.0467,0,0,0,0,0,0,0,-0.0296,-0.0287,-0.0236,-0.0247,-0.0236,-0.0149,-0.0136,0.0004,0.0083,-0.0072,-0.0065,-0.0058,0.0239,0.0285,0.0311,0.0525,0.0447,0.046,0.0469,0.0475,0.0792,0.0791,0,0,0,0,0,0,-0.0345,-0.0294,-0.0242,-0.0232,-0.0269,-0.015,-0.0134,-0.0135,0.0077,0.0105,-0.0059,-0.0053,0.026,0.0293,0.0325,0.0405,0.0462,0.0476,0.0485,0.0792,0.0791,0.0791,0,0,0,0,0,0,-0.0347,-0.0343,-0.0249,-0.0264,-0.0248,-0.0151,-0.0151,-0.0131,-0.0093,0.0083,0.0118,-0.0044,0.0261,0.0304,0.0468,0.0422,0.0483,0.0496,0.0793,0.0792,0.0791,0.0588,0,0,0,0,0,0,-0.035,-0.0345,-0.0355,-0.0269,-0.0249,-0.0215,-0.0152,-0.0128,-0.0094,-0.0084,0.0108,0.0144,0.0265,0.0445,0.0483,0.0444,0.0508,0.0793,0.0792,0.0791,0.0595,0.058,0.0567,0,0,0,0,0,-0.0353,-0.0371,-0.0357,-0.0351,-0.027,-0.0217,-0.0198,-0.0121,-0.0094,-0.0083,0.007,0.0138,0.0463,0.046,0.0503,0.0466,0.0794,0.0793,0.0792,0.0601,0.0583,0.0568,0,0,0,0,0,0,-0.0399,-0.0358,-0.0341,-0.0345,-0.0298,-0.0199,-0.0183,-0.0137,-0.0012,0.0008,0.0174,0.0222,0.0342,0.0442,0.0432,0.0553,0.0623,0.063,0.0462,0.0447,0.0433,0.0391,0.052,0,0,0,0,0,-0.0422,-0.0427,-0.0371,-0.0376,-0.0361,-0.0278,-0.0247,-0.0199,-0.0087,-0.0035,0.0098,0.0241,0.0371,0.0439,0.0579,0.0666,0.0744,0.0658,0.0644,0.0631,0.0626,0.0707,0.0699,0.0787,0.0787,0.0787,0,0,-0.0441,-0.0422,-0.0423,-0.0387,-0.0341,-0.0312,-0.0255,-0.0222,-0.019,-0.0007,0.0093,0.0219,0.0391,0.0489,0.0543,0.0565,0.0645,0.063,0.0617,0.062,0.0705,0.0696,0.0688,0.0787,0.0787,0.0787,0,0,-0.0477,-0.0469,-0.048,-0.0448,-0.0404,-0.0349,-0.0353,-0.0264,-0.0223,-0.0116,0.0015,0.0106,0.0316,0.0403,0.048,0.0473,0.0583,0.0506,0.0392,0.0468,0.0461,0.0455,0.0523,0.0526,0.048,0.0479,0.0479,0,-0.0502,-0.0505,-0.0473,-0.0467,-0.0442,-0.0377,-0.0366,-0.0315,-0.0181,-0.0141,-0.0109,0.0145,0.0262,0.0372,0.0354,0.0434,0.0511,0.0434,0.0446,0.0442,0.044,0.0512,0.0517,0.047,0.0471,0.0472,0.0473,0,-0.0532,-0.0531,-0.0536,-0.0507,-0.0478,-0.0461,-0.0399,-0.0361,-0.031,-0.0247,-0.0142,0.0006,0.0147,0.0166,0.0265,0.0298,0.0368,0.0428,0.0474,0.0418,0.0499,0.0507,0.0455,0.0459,0.0462,0.0464,0,0,-0.0587,-0.0563,-0.0564,-0.0557,-0.0498,-0.0478,-0.0442,-0.0384,-0.0365,-0.0277,-0.0231,-0.0095,-0.0042,0.0047,0.0146,0.0179,0.0199,0.0276,0.0285,0.0319,0.0378,0.0362,0.0372,0.0271,0.0272,0.0273,0.0431,0,-0.0615,-0.0624,-0.0595,-0.0587,-0.0579,-0.0517,-0.0492,-0.0435,-0.0376,-0.0313,-0.0226,-0.013,-0.008,-0.0028,0.001,0.0198,0.0219,0.0152,0.0451,0.0459,0.0432,0.038,0.034,0.0473,0.0441,0.0443,0.0444,0,-0.0646,-0.0646,-0.0654,-0.0629,-0.0623,-0.0609,-0.056,-0.0528,-0.0438,-0.0398,-0.0322,-0.0214,-0.0124,-0.0094,0.0116,0.0084,0.0197,0.0299,0.031,0.0375,0.046,0.0533,0.0492,0.0461,0.0459,0.0458,0.0457,0,-0.0696,-0.0685,-0.0697,-0.0686,-0.0647,-0.0645,-0.0622,-0.0554,-0.0535,-0.0447,-0.0407,-0.0276,-0.0177,-0.0041,0.0166,0.0157,0.04,0.0425,0.0505,0.0507,0.057,0.0574,0.0527,0.0527,0.0526,0.0526,0.0526,0,-0.0733,-0.0741,-0.073,-0.0734,-0.0753,-0.0706,-0.0722,-0.0676,-0.0617,-0.0562,-0.0461,-0.0356,-0.0156,0.0024,0.0167,0.0375,0.0409,0.0475,0.054,0.0496,0.0492,0.0571,0.0574,0.0532,0.0531,0.053,0.0529,0,-0.078,-0.0774,-0.0785,-0.0772,-0.0778,-0.0791,-0.0796,-0.081,-0.0733,-0.065,-0.0616,-0.0391,-0.0144,0.0044,0.0319,0.0395,0.0577,0.0635,0.0559,0.0608,0.0627,0.0618,0.0721,0.0722,0.0722,0.0723,0.0723,0,-0.08,-0.0813,-0.0828,-0.0865,-0.0867,-0.0896,-0.0932,-0.0882,-0.0858,-0.0634,-0.057,-0.0318,-0.0093,0.0262,0.0432,0.064,0.0656,0.0692,0.0625,0.0591,0.0644,0.0634,0.0625,0.0641,0.064,0.064,0.064,0,-0.0832,-0.0844,-0.0866,-0.095,-0.1001,-0.1045,-0.1049,-0.102,-0.0898,-0.076,-0.0462,-0.0255,0.0078,0.033,0.0531,0.0643,0.0641,0.0688,0.0722,0.0572,0.0521,0.057,0.0563,0.0637,0.0638,0.0638,0.0638,0.0638,-0.0854,-0.0899,-0.0962,-0.1039,-0.1103,-0.1141,-0.1147,-0.1072,-0.0947,-0.0653,-0.0421,-0.0111,0.0071,0.0366,0.0544,0.067,0.0671,0.0678,0.0678,0.0678,0.0614,0.0563,0.0677,0.0678,0.0678,0.0678,0.0679,0,-0.0887,-0.0966,-0.1056,-0.1139,-0.1222,-0.1239,-0.1201,-0.1138,-0.0926,-0.0622,-0.0324,-0.0096,0.0144,0.0344,0.0541,0.065,0.0639,0.0664,0.0631,0.0633,0.0634,0.0566,0.0619,0.0619,0.0619,0.062,0,0,-0.0917,-0.1019,-0.1086,-0.1229,-0.1289,-0.133,-0.1286,-0.1111,-0.0894,-0.0526,-0.0293,-0.01,0.0135,0.0225,0.0393,0.0538,0.0552,0.0539,0.0572,0.0517,0.0517,0.0626,0.052,0,0,0,0,0]}],[{"header":{"parameterUnit":"m.s-1","parameterCategory":2,"la1":30.2991,"la2":30.254,"lo1":-89.0895,"lo2":-89.0444,"dy":0.0017,"dx":0.0017,"nx":28,"ny":28,"refTime":"2025-06-01T09:00:00:Z","depth":"4","parameterNumber":2,"parameterNumberName":"U-component_of_CURRENTS"},"data":[0,0,0,0,0,0,0,0,0,0,0,0,0,0,0,0,0,0,0,0,0,0,0,0,0,0,0,0,0,0,0,0,0,0,0,0,0,0,0,0,0,0,0,0,0,0,0,0,0,0,0,0,0,0,0,0,0,0,-0.1425,-0.1425,0,-0.1424,-0.1424,-0.1423,-0.1399,-0.1399,-0.1399,-0.1399,-0.1364,-0.1363,-0.1363,0,0,0,0,0,0,0,0,0,0,0,0,0,-0.1417,-0.1416,-0.1425,-0.1425,-0.1425,-0.1424,-0.1424,-0.1423,-0.1399,-0.1399,-0.1399,-0.1398,-0.1364,-0.1363,-0.1363,0,0,0,0,0,0,0,0,0,0,0,0,0,-0.1414,-0.1416,-0.1424,-0.1417,-0.1416,-0.1424,-0.1424,-0.1423,-0.1399,-0.1399,-0.1399,-0.1398,-0.1365,-0.1363,-0.1362,-0.1361,0,0,-0.1359,-0.1359,0,0,0,0,0,0,0,0,-0.1414,-0.1414,-0.1418,-0.1417,-0.1417,-0.1415,-0.1408,-0.1402,-0.1399,-0.1401,-0.1399,-0.1398,-0.1381,-0.1379,-0.1373,-0.136,-0.1358,-0.1359,-0.1358,-0.1358,-0.1357,0,0,0,0,0,0,0,-0.1414,-0.1414,-0.1419,-0.1418,-0.1418,-0.1418,-0.1416,-0.1407,-0.1388,-0.1401,-0.14,-0.1408,-0.138,-0.1374,-0.1372,-0.1358,-0.1359,-0.1358,-0.1357,-0.1357,-0.134,-0.134,0,0,0,0,0,0,-0.1424,-0.1414,-0.142,-0.142,-0.142,-0.1418,-0.1417,-0.1412,-0.1389,-0.1387,-0.1408,-0.1407,-0.1376,-0.1373,-0.1371,-0.1388,-0.1358,-0.1357,-0.1356,-0.134,-0.134,-0.134,0,0,0,0,0,0,-0.1423,-0.1424,-0.142,-0.1421,-0.1421,-0.1419,-0.1414,-0.1413,-0.1423,-0.1396,-0.1392,-0.1423,-0.1376,-0.1372,-0.1354,-0.1386,-0.1356,-0.1355,-0.134,-0.134,-0.134,-0.141,0,0,0,0,0,0,-0.1423,-0.1423,-0.1432,-0.1422,-0.1422,-0.1425,-0.1415,-0.1413,-0.1429,-0.1428,-0.1407,-0.1403,-0.1375,-0.1355,-0.1353,-0.1384,-0.1354,-0.1339,-0.134,-0.134,-0.1407,-0.1413,-0.1417,0,0,0,0,0,-0.1422,-0.1431,-0.1432,-0.1434,-0.1431,-0.1426,-0.1425,-0.142,-0.1431,-0.1429,-0.1408,-0.1404,-0.1357,-0.1354,-0.1351,-0.1383,-0.1339,-0.134,-0.134,-0.1405,-0.1412,-0.1417,0,0,0,0,0,0,-0.1437,-0.143,-0.143,-0.1438,-0.1435,-0.1423,-0.1437,-0.1436,-0.1421,-0.143,-0.14,-0.1392,-0.1383,-0.1371,-0.1369,-0.1377,-0.1351,-0.1351,-0.1402,-0.1408,-0.1412,-0.1424,-0.1353,0,0,0,0,0,-0.1446,-0.1448,-0.144,-0.145,-0.1455,-0.1453,-0.1458,-0.1455,-0.1442,-0.1438,-0.1423,-0.1407,-0.1382,-0.1385,-0.1355,-0.1368,-0.1343,-0.1387,-0.1392,-0.1396,-0.1402,-0.1397,-0.1402,-0.1342,-0.1342,-0.1342,0,0,-0.1461,-0.1455,-0.146,-0.1454,-0.1459,-0.1463,-0.1454,-0.147,-0.1476,-0.1437,-0.1445,-0.1417,-0.1382,-0.1378,-0.1378,-0.1378,-0.1394,-0.1397,-0.1401,-0.1405,-0.1398,-0.1404,-0.1409,-0.1342,-0.1342,-0.1342,0,0,-0.1477,-0.1484,-0.1487,-0.1485,-0.1494,-0.1492,-0.1502,-0.1502,-0.1505,-0.1502,-0.1472,-0.1462,-0.1439,-0.1421,-0.1407,-0.1426,-0.1405,-0.1428,-0.1485,-0.148,-0.1485,-0.149,-0.1443,-0.1443,-0.145,-0.145,-0.145,0,-0.1499,-0.1491,-0.149,-0.149,-0.1499,-0.1508,-0.1517,-0.1522,-0.1514,-0.1522,-0.1512,-0.1483,-0.1458,-0.1456,-0.1458,-0.1441,-0.142,-0.1469,-0.1489,-0.1493,-0.1496,-0.1447,-0.1446,-0.1454,-0.1453,-0.1453,-0.1453,0,-0.1498,-0.1508,-0.1516,-0.1516,-0.1525,-0.1538,-0.1545,-0.1562,-0.1577,-0.1575,-0.1579,-0.1544,-0.1527,-0.1528,-0.1498,-0.1519,-0.1486,-0.1482,-0.1479,-0.1507,-0.1452,-0.145,-0.1459,-0.1457,-0.1456,-0.1455,0,0,-0.15,-0.1513,-0.1517,-0.1523,-0.1541,-0.1544,-0.1577,-0.1593,-0.1614,-0.1622,-0.1635,-0.1615,-0.161,-0.1593,-0.1572,-0.1584,-0.1578,-0.1557,-0.1555,-0.1519,-0.1541,-0.1455,-0.1443,-0.1588,-0.1588,-0.1589,-0.1485,0,-0.15,-0.1508,-0.1517,-0.1537,-0.1542,-0.157,-0.1593,-0.1616,-0.1632,-0.1645,-0.1649,-0.1637,-0.1633,-0.1623,-0.1639,-0.1575,-0.1579,-0.1605,-0.1511,-0.1507,-0.1437,-0.1441,-0.1591,-0.1483,-0.1482,-0.1482,-0.1481,0,-0.1476,-0.1487,-0.1506,-0.154,-0.1549,-0.1566,-0.1609,-0.1629,-0.1661,-0.1674,-0.1694,-0.1678,-0.1677,-0.1672,-0.1627,-0.1644,-0.1603,-0.1571,-0.1566,-0.1463,-0.1418,-0.1453,-0.1477,-0.1477,-0.1477,-0.1478,-0.1478,0,-0.144,-0.1475,-0.1493,-0.1501,-0.1542,-0.1567,-0.1597,-0.1638,-0.1649,-0.1686,-0.1681,-0.1699,-0.1666,-0.1658,-0.1599,-0.1608,-0.1543,-0.1537,-0.1424,-0.1415,-0.1494,-0.1491,-0.1521,-0.1521,-0.1522,-0.1522,-0.1522,0,-0.1402,-0.142,-0.148,-0.148,-0.1503,-0.1551,-0.1576,-0.1611,-0.1647,-0.1639,-0.1686,-0.1661,-0.1664,-0.1626,-0.1599,-0.1492,-0.1539,-0.1423,-0.139,-0.152,-0.1521,-0.1491,-0.1488,-0.1518,-0.1519,-0.152,-0.152,0,-0.1335,-0.1381,-0.1398,-0.1458,-0.1475,-0.1489,-0.1539,-0.1549,-0.1603,-0.1588,-0.1592,-0.1604,-0.1546,-0.1543,-0.149,-0.1446,-0.1387,-0.1347,-0.1463,-0.1438,-0.1254,-0.1257,-0.1181,-0.1177,-0.1174,-0.1171,-0.1169,0,-0.1296,-0.13,-0.136,-0.1368,-0.1391,-0.1425,-0.1437,-0.1506,-0.1504,-0.1532,-0.1499,-0.1472,-0.1466,-0.1314,-0.1343,-0.1282,-0.1282,-0.1237,-0.1274,-0.1248,-0.1223,-0.1231,-0.1237,-0.1164,-0.1163,-0.1163,-0.1162,0,-0.1217,-0.1252,-0.1263,-0.1279,-0.1294,-0.1299,-0.1322,-0.1304,-0.1364,-0.1428,-0.1359,-0.1326,-0.1255,-0.1223,-0.119,-0.1161,-0.1261,-0.1203,-0.121,-0.1244,-0.1226,-0.1207,-0.1217,-0.1151,-0.1152,-0.1153,-0.1154,0,-0.1162,-0.1149,-0.1174,-0.1171,-0.1187,-0.1151,-0.1181,-0.1167,-0.1174,-0.1223,-0.1193,-0.1193,-0.1224,-0.1156,-0.1134,-0.1093,-0.1071,-0.1042,-0.1056,-0.1068,-0.1087,-0.1052,-0.0886,0,0,0,0,0,-0.1103,-0.1075,-0.1066,-0.1037,-0.1045,-0.1049,-0.109,-0.1127,-0.1182,-0.1097,-0.1145,-0.1089,-0.1036,-0.1048,-0.0977,-0.1071,-0.1074,-0.0986,-0.1049,-0.109,-0.1103,-0.1139,0,0,0,0,0,0,-0.1063,-0.1055,-0.103,-0.0925,-0.088,-0.0862,-0.0883,-0.0925,-0.0893,-0.0969,-0.0945,-0.1015,-0.098,-0.1042,-0.0946,-0.095,-0.0966,-0.1008,-0.1004,-0.1083,-0.1094,-0.1104,-0.1146,0,0,0,0,0]},{"header":{"parameterUnit":"m.s-1","parameterCategory":2,"la1":30.2991,"la2":30.254,"lo1":-89.0895,"lo2":-89.0444,"dy":0.0017,"dx":0.0017,"nx":28,"ny":28,"refTime":"2025-06-01T09:00:00:Z","depth":"4","parameterNumber":3,"parameterNumberName":"V-component_of_CURRENTS"},"data":[0,0,0,0,0,0,0,0,0,0,0,0,0,0,0,0,0,0,0,0,0,0,0,0,0,0,0,0,0,0,0,0,0,0,0,0,0,0,0,0,0,0,0,0,0,0,0,0,0,0,0,0,0,0,0,0,0,0,-0.0261,-0.026,0,-0.0235,-0.0234,-0.0234,-0.023,-0.023,-0.023,-0.023,-0.0222,-0.0222,-0.0221,0,0,0,0,0,0,0,0,0,0,0,0,0,-0.0274,-0.0275,-0.0261,-0.026,-0.0259,-0.0235,-0.0234,-0.0234,-0.023,-0.023,-0.023,-0.023,-0.0222,-0.0222,-0.0221,0,0,0,0,0,0,0,0,0,0,0,0,0,-0.0263,-0.0275,-0.0261,-0.0252,-0.0251,-0.0235,-0.0234,-0.0234,-0.023,-0.023,-0.023,-0.023,-0.0222,-0.0222,-0.0221,-0.0221,0,0,-0.022,-0.022,0,0,0,0,0,0,0,0,-0.0264,-0.0263,-0.0254,-0.0253,-0.0251,-0.0233,-0.0236,-0.023,-0.023,-0.0241,-0.023,-0.023,-0.0225,-0.0225,-0.0224,-0.022,-0.022,-0.022,-0.022,-0.022,-0.022,0,0,0,0,0,0,0,-0.0265,-0.0264,-0.0253,-0.0253,-0.0252,-0.0238,-0.0237,-0.0235,-0.0237,-0.024,-0.0239,-0.0232,-0.0225,-0.0224,-0.0224,-0.022,-0.022,-0.022,-0.022,-0.022,-0.022,-0.0221,0,0,0,0,0,0,-0.0264,-0.0265,-0.0254,-0.0252,-0.0254,-0.0238,-0.0237,-0.0241,-0.0236,-0.0234,-0.0232,-0.0232,-0.0225,-0.0224,-0.0223,-0.02,-0.022,-0.022,-0.022,-0.022,-0.022,-0.0221,0,0,0,0,0,0,-0.0265,-0.0264,-0.0255,-0.0255,-0.0252,-0.0238,-0.0243,-0.0241,-0.0244,-0.0229,-0.0228,-0.0237,-0.0225,-0.0224,-0.0222,-0.0201,-0.022,-0.0219,-0.022,-0.022,-0.0221,-0.0168,0,0,0,0,0,0,-0.0265,-0.0265,-0.0275,-0.0255,-0.0252,-0.0251,-0.0242,-0.024,-0.0238,-0.0238,-0.0233,-0.0232,-0.0225,-0.0222,-0.0222,-0.0201,-0.0219,-0.022,-0.022,-0.022,-0.017,-0.0167,-0.0164,0,0,0,0,0,-0.0266,-0.0283,-0.0276,-0.0275,-0.0265,-0.0251,-0.0249,-0.0239,-0.0238,-0.0243,-0.0236,-0.0232,-0.0224,-0.0222,-0.0221,-0.02,-0.022,-0.022,-0.022,-0.0171,-0.0167,-0.0164,0,0,0,0,0,0,-0.0298,-0.0283,-0.0275,-0.0288,-0.027,-0.0249,-0.0255,-0.0244,-0.0243,-0.0247,-0.0233,-0.0232,-0.0227,-0.0228,-0.0226,-0.0205,-0.0222,-0.0222,-0.0185,-0.0181,-0.0179,-0.0171,-0.0219,0,0,0,0,0,-0.0308,-0.0318,-0.0292,-0.0303,-0.0296,-0.0276,-0.0272,-0.0263,-0.0253,-0.0253,-0.024,-0.0235,-0.0227,-0.0217,-0.022,-0.0203,-0.0187,-0.0192,-0.0189,-0.0187,-0.0183,-0.0121,-0.0111,-0.0222,-0.0222,-0.0222,0,0,-0.0324,-0.0317,-0.0323,-0.0311,-0.03,-0.0285,-0.0275,-0.0273,-0.0255,-0.0252,-0.0236,-0.0233,-0.0227,-0.0209,-0.0205,-0.0203,-0.0152,-0.0187,-0.0184,-0.0182,-0.012,-0.0109,-0.0099,-0.0222,-0.0222,-0.0222,0,0,-0.0352,-0.0354,-0.0363,-0.0347,-0.0328,-0.0308,-0.0307,-0.0283,-0.027,-0.0256,-0.0244,-0.0219,-0.0221,-0.0185,-0.0175,-0.016,-0.015,-0.0175,-0.0136,-0.0075,-0.0064,-0.0055,-0.0034,-0.0023,-0.0159,-0.0159,-0.0159,0,-0.0372,-0.0373,-0.0364,-0.0358,-0.0341,-0.0317,-0.0306,-0.0288,-0.0263,-0.0242,-0.0253,-0.0212,-0.0201,-0.0147,-0.014,-0.0147,-0.0134,-0.0142,-0.0067,-0.0057,-0.0048,-0.0029,-0.0018,-0.0157,-0.0157,-0.0157,-0.0157,0,-0.039,-0.0389,-0.0393,-0.0372,-0.0356,-0.0347,-0.0307,-0.0289,-0.0271,-0.024,-0.0201,-0.0176,-0.0145,-0.0133,-0.0131,-0.006,-0.008,-0.0077,-0.0065,-0.0033,-0.0017,-0.0005,-0.0153,-0.0154,-0.0155,-0.0155,0,0,-0.0434,-0.041,-0.0412,-0.0395,-0.0359,-0.0346,-0.0313,-0.0265,-0.0239,-0.0203,-0.0158,-0.0115,-0.0096,-0.0083,-0.0062,0.0002,0.008,-0.0009,-0.0007,0.0026,0.0184,0.0129,0.0136,0.01,0.0103,0.0105,0.0165,0,-0.0446,-0.0439,-0.042,-0.0399,-0.038,-0.0341,-0.0312,-0.0267,-0.023,-0.0183,-0.0123,-0.009,-0.0077,-0.0063,0.0008,0.0052,0.0113,0.0061,0.0132,0.0133,0.0096,0.0149,0.0113,0.0174,0.0176,0.0178,0.0179,0,-0.0461,-0.0448,-0.0436,-0.0394,-0.0385,-0.0371,-0.0312,-0.0282,-0.0206,-0.0179,-0.0115,-0.0083,0.001,0.0008,0.0136,0.0098,0.0143,0.0184,0.0187,0.0128,0.0101,0.0135,0.02,0.0198,0.0197,0.0195,0.0194,0,-0.0481,-0.0456,-0.0446,-0.0432,-0.0384,-0.0372,-0.0347,-0.0284,-0.0259,-0.0176,-0.0154,-0.0047,-0.0006,0.0088,0.0157,0.0154,0.0281,0.0291,0.0287,0.0282,0.029,0.028,0.0391,0.0391,0.0391,0.0391,0.0391,0,-0.0485,-0.0477,-0.046,-0.045,-0.0438,-0.0397,-0.0377,-0.0335,-0.028,-0.0249,-0.0161,-0.0117,0.0017,0.0095,0.0168,0.0249,0.0293,0.0302,0.0308,0.0304,0.0295,0.0297,0.0286,0.0393,0.0393,0.0392,0.0392,0,-0.0499,-0.0491,-0.0479,-0.045,-0.0448,-0.0441,-0.0419,-0.041,-0.0344,-0.0303,-0.0281,-0.0159,-0.0052,0.0057,0.0203,0.0245,0.0337,0.035,0.0311,0.0311,0.0295,0.0285,0.0377,0.0376,0.0375,0.0374,0.0374,0,-0.0498,-0.0496,-0.0496,-0.0516,-0.051,-0.0502,-0.0511,-0.0454,-0.044,-0.0333,-0.0319,-0.0201,-0.0119,0.0041,0.0165,0.0301,0.0313,0.0347,0.036,0.0305,0.0301,0.0292,0.0284,0.0372,0.0372,0.0372,0.0371,0,-0.049,-0.0508,-0.0508,-0.0561,-0.0586,-0.0593,-0.0591,-0.058,-0.0509,-0.0451,-0.0352,-0.0242,-0.0124,0.0024,0.0114,0.0217,0.0326,0.0338,0.0341,0.0354,0.03,0.0295,0.0288,0.0368,0.0368,0.0369,0.0369,0,-0.0497,-0.0514,-0.0555,-0.0601,-0.0649,-0.068,-0.0657,-0.0629,-0.0594,-0.0467,-0.0436,-0.0277,-0.0168,-0.002,0.0072,0.0158,0.0194,0.0216,0.0226,0.0231,0.0169,0.0077,0.0096,0,0,0,0,0,-0.0495,-0.0544,-0.0598,-0.0652,-0.0711,-0.0737,-0.072,-0.0686,-0.0609,-0.056,-0.0492,-0.0379,-0.0199,-0.0099,-0.0022,0.005,0.0196,0.0141,0.0222,0.035,0.0354,0.03,0,0,0,0,0,0,-0.0503,-0.0556,-0.0604,-0.0707,-0.076,-0.081,-0.0803,-0.0742,-0.0691,-0.0595,-0.0496,-0.0395,-0.022,-0.0263,-0.0037,-0.0002,0.0053,0.0245,0.0246,0.0348,0.0351,0.0354,0.03,0,0,0,0,0]}]]